• In Lithuania
  • List of Countries
  • For 7 days
  • Water Temperature
  • Satellite Maps
  • Weather Map
  • Weather Widgets
  • user-avatar
    Login

    Hourly Weather Kalgoorlie

    Today, 19 September, Tuesday

    Time Temperature Precipitation Wind Pressure Humidity
    00:00 +20°C° 0 mm 5 mps 733 mmHg 37%
    01:00 +20°C° 0 mm 5 mps 733 mmHg 38%
    02:00 +20°C° 0 mm 5 mps 732 mmHg 38%
    03:00 +19°C° 0 mm 6 mps 732 mmHg 40%
    04:00 +19°C° 0 mm 6 mps 732 mmHg 41%
    05:00 +17°C° 0 mm 6 mps 732 mmHg 42%
    06:00 +20°C° 0 mm 7 mps 732 mmHg 40%
    07:00 +21°C° 0 mm 7 mps 731 mmHg 38%
    08:00 +22°C° 0 mm 8 mps 731 mmHg 32%
    09:00 +26°C° 0 mm 8 mps 731 mmHg 28%
    10:00 +28°C° 0 mm 9 mps 731 mmHg 25%
    11:00 +32°C° 0 mm 9 mps 730 mmHg 21%
    12:00 +33°C° 0 mm 9 mps 729 mmHg 18%
    13:00 +36°C° 0 mm 10 mps 729 mmHg 15%
    14:00 +37°C° 0 mm 10 mps 728 mmHg 13%
    15:00 +35°C° 0 mm 9 mps 728 mmHg 13%
    16:00 +35°C° 0 mm 8 mps 727 mmHg 13%
    17:00 +35°C° 0 mm 7 mps 727 mmHg 13%
    18:00 +33°C° 0 mm 7 mps 727 mmHg 16%
    19:00 +30°C° 0 mm 7 mps 727 mmHg 19%
    20:00 +28°C° 0 mm 6 mps 727 mmHg 22%
    21:00 +26°C° 0 mm 6 mps 728 mmHg 28%
    22:00 +24°C° 0 mm 6 mps 728 mmHg 35%
    23:00 +22°C° 0 mm 6 mps 728 mmHg 42%

    Tomorrow, 20 September, Wednesday

    Time Temperature Precipitation Wind Pressure Humidity
    00:00 +21°C° 0 mm 5 mps 728 mmHg 49%
    01:00 +20°C° 0 mm 5 mps 728 mmHg 56%
    02:00 +19°C° 0 mm 4 mps 728 mmHg 63%
    03:00 +18°C° 0 mm 4 mps 728 mmHg 69%
    04:00 +18°C° 0 mm 3 mps 728 mmHg 74%
    05:00 +17°C° 0 mm 3 mps 728 mmHg 80%
    06:00 +18°C° 0 mm 3 mps 729 mmHg 76%
    07:00 +18°C° 0 mm 4 mps 729 mmHg 73%
    08:00 +19°C° 0 mm 4 mps 729 mmHg 69%
    09:00 +20°C° 0 mm 5 mps 729 mmHg 62%
    10:00 +22°C° 0 mm 5 mps 729 mmHg 55%
    11:00 +23°C° 0 mm 6 mps 729 mmHg 48%
    12:00 +23°C° 0 mm 7 mps 728 mmHg 47%
    13:00 +23°C° 0 mm 7 mps 728 mmHg 46%
    14:00 +24°C° 0 mm 7 mps 728 mmHg 45%
    15:00 +24°C° 0 mm 7 mps 728 mmHg 44%
    16:00 +24°C° 0 mm 7 mps 728 mmHg 43%
    17:00 +24°C° 0 mm 7 mps 728 mmHg 41%
    18:00 +22°C° 0 mm 6 mps 728 mmHg 46%
    19:00 +21°C° 0 mm 5 mps 729 mmHg 51%
    20:00 +20°C° 0 mm 4 mps 729 mmHg 56%
    21:00 +19°C° 0 mm 4 mps 729 mmHg 59%
    22:00 +19°C° 0 mm 3 mps 729 mmHg 62%
    23:00 +18°C° 0 mm 2 mps 729 mmHg 65%

    Day after tomorrow, 21 September, Thursday

    Time Temperature Precipitation Wind Pressure Humidity
    00:00 +17°C° 0 mm 2 mps 729 mmHg 67%
    01:00 +18°C° 0 mm 1 mps 728 mmHg 69%
    02:00 +16°C° 0 mm 1 mps 728 mmHg 71%
    03:00 +16°C° 0 mm 1 mps 728 mmHg 71%
    04:00 +16°C° 0 mm 2 mps 727 mmHg 71%
    05:00 +16°C° 0 mm 2 mps 727 mmHg 72%
    06:00 +18°C° 0 mm 3 mps 727 mmHg 66%
    07:00 +19°C° 0 mm 5 mps 727 mmHg 60%
    08:00 +21°C° 0 mm 6 mps 727 mmHg 55%
    09:00 +23°C° 0 mm 8 mps 727 mmHg 48%
    10:00 +26°C° 0 mm 9 mps 726 mmHg 41%
    11:00 +28°C° 0 mm 10 mps 726 mmHg 34%
    12:00 +29°C° 0 mm 11 mps 725 mmHg 29%
    13:00 +31°C° 0 mm 11 mps 724 mmHg 25%
    14:00 +32°C° 0 mm 12 mps 723 mmHg 20%
    15:00 +32°C° 0 mm 12 mps 723 mmHg 19%
    16:00 +32°C° 0 mm 11 mps 722 mmHg 18%
    17:00 +32°C° 0 mm 11 mps 722 mmHg 17%
    18:00 +29°C° 0 mm 10 mps 723 mmHg 19%
    19:00 +28°C° 0 mm 8 mps 723 mmHg 21%
    20:00 +26°C° 0 mm 7 mps 723 mmHg 23%
    21:00 +24°C° 0 mm 7 mps 723 mmHg 31%
    22:00 +23°C° 0 mm 7 mps 724 mmHg 39%
    23:00 +22°C° 0 mm 7 mps 724 mmHg 46%

    22 September, Friday

    Time Temperature Precipitation Wind Pressure Humidity
    00:00 +21°C° 0 mm 7 mps 723 mmHg 53%
    01:00 +20°C° 0 mm 6 mps 723 mmHg 59%
    02:00 +19°C° 0 mm 6 mps 723 mmHg 65%
    03:00 +19°C° 0 mm 6 mps 723 mmHg 68%
    04:00 +17°C° 0 mm 6 mps 723 mmHg 70%
    05:00 +17°C° 0 mm 6 mps 722 mmHg 73%
    06:00 +17°C° 0 mm 7 mps 723 mmHg 70%
    07:00 +18°C° 0 mm 8 mps 723 mmHg 67%
    08:00 +19°C° 0 mm 10 mps 723 mmHg 63%
    09:00 +19°C° 0.1 mm 10 mps 723 mmHg 60%
    10:00 +19°C° 0.1 mm 11 mps 723 mmHg 58%
    11:00 +21°C° 0.1 mm 11 mps 722 mmHg 55%
    12:00 +21°C° 0.1 mm 12 mps 722 mmHg 51%
    13:00 +20°C° 0.1 mm 14 mps 721 mmHg 47%
    14:00 +20°C° 0.1 mm 15 mps 721 mmHg 43%
    15:00 +19°C° 0.1 mm 14 mps 721 mmHg 47%
    16:00 +18°C° 0.1 mm 14 mps 722 mmHg 50%
    17:00 +17°C° 0.1 mm 13 mps 722 mmHg 53%
    18:00 +15°C° 0.1 mm 12 mps 723 mmHg 54%
    19:00 +14°C° 0.1 mm 12 mps 724 mmHg 55%
    20:00 +14°C° 0.1 mm 11 mps 724 mmHg 56%
    21:00 +13°C° 0 mm 11 mps 724 mmHg 57%
    22:00 +12°C° 0 mm 10 mps 724 mmHg 58%
    23:00 +12°C° 0 mm 9 mps 724 mmHg 60%

    23 September, Saturday

    Time Temperature Precipitation Wind Pressure Humidity
    00:00 +11°C° 0 mm 10 mps 724 mmHg 63%
    01:00 +11°C° 0 mm 10 mps 724 mmHg 66%
    02:00 +9°C° 0 mm 10 mps 724 mmHg 69%
    03:00 +10°C° 0 mm 9 mps 725 mmHg 72%
    04:00 +10°C° 0 mm 9 mps 725 mmHg 74%
    05:00 +9°C° 0 mm 8 mps 725 mmHg 77%
    06:00 +10°C° 0 mm 8 mps 726 mmHg 73%
    07:00 +10°C° 0 mm 8 mps 726 mmHg 69%
    08:00 +11°C° 0 mm 8 mps 727 mmHg 66%
    09:00 +12°C° 0 mm 9 mps 727 mmHg 62%
    10:00 +12°C° 0 mm 9 mps 727 mmHg 58%
    11:00 +13°C° 0 mm 9 mps 727 mmHg 54%
    12:00 +13°C° 0 mm 9 mps 727 mmHg 52%
    13:00 +13°C° 0 mm 9 mps 727 mmHg 50%
    14:00 +13°C° 0 mm 9 mps 726 mmHg 49%
    15:00 +13°C° 0 mm 8 mps 727 mmHg 47%
    16:00 +13°C° 0 mm 8 mps 727 mmHg 45%
    17:00 +14°C° 0 mm 7 mps 727 mmHg 42%
    18:00 +13°C° 0 mm 6 mps 727 mmHg 45%
    19:00 +13°C° 0 mm 5 mps 728 mmHg 48%
    20:00 +12°C° 0 mm 3 mps 728 mmHg 51%
    21:00 +11°C° 0 mm 3 mps 728 mmHg 53%
    22:00 +12°C° 0 mm 2 mps 727 mmHg 55%
    23:00 +10°C° 0 mm 2 mps 727 mmHg 57%

    24 September, Sunday

    Time Temperature Precipitation Wind Pressure Humidity
    00:00 +11°C° 0 mm 1 mps 726 mmHg 59%
    01:00 +10°C° 0 mm 1 mps 726 mmHg 61%
    02:00 +10°C° 0 mm 1 mps 725 mmHg 63%
    03:00 +9°C° 0 mm 2 mps 725 mmHg 64%
    04:00 +9°C° 0 mm 2 mps 725 mmHg 65%
    05:00 +9°C° 0 mm 2 mps 725 mmHg 67%
    06:00 +10°C° 0 mm 3 mps 725 mmHg 64%
    07:00 +10°C° 0 mm 3 mps 725 mmHg 62%
    08:00 +11°C° 0 mm 3 mps 725 mmHg 60%
    09:00 +12°C° 0.1 mm 4 mps 724 mmHg 57%
    10:00 +13°C° 0.1 mm 5 mps 724 mmHg 55%
    11:00 +13°C° 0.1 mm 6 mps 723 mmHg 53%
    12:00 +15°C° 0 mm 7 mps 722 mmHg 49%
    13:00 +16°C° 0 mm 8 mps 721 mmHg 46%
    14:00 +17°C° 0 mm 9 mps 721 mmHg 42%
    15:00 +17°C° 0.2 mm 9 mps 720 mmHg 43%
    16:00 +17°C° 0.2 mm 9 mps 720 mmHg 44%
    17:00 +17°C° 0.2 mm 8 mps 720 mmHg 45%
    18:00 +15°C° 0.2 mm 8 mps 720 mmHg 51%
    19:00 +14°C° 0.2 mm 7 mps 720 mmHg 58%
    20:00 +12°C° 0.2 mm 7 mps 721 mmHg 65%
    21:00 +11°C° 0 mm 6 mps 720 mmHg 68%
    22:00 +11°C° 0 mm 4 mps 720 mmHg 71%
    23:00 +10°C° 0 mm 3 mps 720 mmHg 74%
    Show more